Location: Bonaustraße
(48.4603°N, 11.9280°E)
Time: 08:14:38
(UTC+02:00)

STRAND 1 - Visible Passes

Search period start: 29 July 2021 00:00
Search period end: 08 August 2021 00:00
Orbit: 767 x 781 km, 98.4° (Epoch: 28 July)

Date Brightness Start Highest point End Pass type
(mag) Time Alt. Az. Time Alt. Az. Time Alt. Az.
29 Jul ? 21:36:00 10° N 21:40:35 34° WNW 21:45:08 10° SW visible
30 Jul ? 22:43:15 10° NNW 22:44:54 12° NW 22:46:32 10° WNW visible
31 Jul ? 22:07:39 10° NNW 22:11:19 20° WNW 22:14:59 10° WSW visible
01 Aug ? 21:32:56 10° N 21:37:34 36° WNW 21:42:11 10° SW visible
02 Aug ? 22:40:00 10° NNW 22:41:55 12° NW 22:43:51 10° WNW visible
03 Aug ? 22:04:33 10° N 22:08:20 21° WNW 22:12:06 10° WSW visible
04 Aug ? 21:29:53 10° N 21:34:35 38° WNW 21:39:14 10° SW visible
05 Aug ? 22:36:47 10° NNW 22:38:57 13° NW 22:41:07 10° WNW visible
06 Aug ? 22:01:28 10° N 22:05:20 22° WNW 22:09:13 10° WSW visible
07 Aug ? 21:26:50 10° N 21:31:34 40° WNW 21:36:17 10° SW visible
